カタログに戻る

TJS-7

運用中通信GEO
NORAD 49115·PAYLOAD·🇨🇳 China

打ち上げ Aug 24, 2021 から Xichang Satellite Launch Center

Loading…

TLE

最新Source: Space-Track

元期: Sep 14, 2026, 15:02 UTC

1 49115U 21077A   26257.62675458 -.00000132  00000-0  00000-0 0  9999
2 49115   0.1323 261.0249 0001831 102.7869 115.9128  1.00273561 10442

AllMySatでTJS-7をリアルタイム追跡

Download on the App Store